This is the latest recevied weather packets stored in our database for station/object KE8DAF-15. If no packets are shown the sender has not sent any weather packets the latest 10 day(s).
| Time | Temp. | Humidity | Pressure | Rain* | Wind** | Luminosity | Snow |
|---|---|---|---|---|---|---|---|
| 1787775478 | 21.11° C | 87% | 994.1 hPa | 0 mm | - | - | - |
| 1787775178 | 21.11° C | 86% | 994 hPa | 0 mm | - | - | - |
| 1787774878 | 21.67° C | 86% | 994.3 hPa | 0 mm | - | - | - |
| 1787774578 | 21.67° C | 85% | 994.2 hPa | 0 mm | - | - | - |
| 1787774278 | 22.22° C | 83% | 994.2 hPa | 0 mm | - | - | - |
| 1787773978 | 22.22° C | 83% | 994.3 hPa | 0 mm | - | - | - |
| 1787773678 | 22.78° C | 81% | 994.4 hPa | 0 mm | - | - | - |
| 1787773378 | 23.33° C | 80% | 994.4 hPa | 0 mm | - | - | - |
| 1787773078 | 23.89° C | 80% | 994.3 hPa | 0 mm | - | - | - |
| 1787772778 | 23.89° C | 81% | 994.2 hPa | 0 mm | - | - | - |
| 1787772478 | 23.89° C | 82% | 994.2 hPa | 0 mm | - | - | - |
| 1787772178 | 23.33° C | 81% | 994.3 hPa | 0 mm | - | - | - |
| 1787771878 | 23.33° C | 82% | 994.2 hPa | 0 mm | - | - | - |
| 1787771578 | 22.78° C | 86% | 994.3 hPa | 0 mm | - | - | - |
| 1787771278 | 21.67° C | 87% | 994.5 hPa | 0 mm | - | - | - |
| 1787770978 | 21.11° C | 87% | 994.7 hPa | 0 mm | - | - | - |
| 1787770678 | 21.11° C | 87% | 994.7 hPa | 0 mm | - | - | - |
| 1787770378 | 21.11° C | 86% | 994.8 hPa | 0 mm | - | - | - |
| 1787770078 | 21.11° C | 88% | 994.8 hPa | 0 mm | - | - | - |
| 1787769778 | 21.11° C | 87% | 994.9 hPa | 0 mm | - | - | - |
| 1787769478 | 21.11° C | 86% | 994.9 hPa | 0 mm | - | - | - |
| 1787769179 | 21.11° C | 86% | 994.9 hPa | 0 mm | - | - | - |
| 1787768878 | 21.11° C | 87% | 994.9 hPa | 0 mm | - | - | - |
| 1787768578 | 21.11° C | 85% | 995 hPa | 0 mm | - | - | - |
| 1787768281 | 21.67° C | 86% | 995 hPa | 0 mm | - | - | - |
* Rain latest hour (hover to see other rain measurements)
** Current wind speed in m/s (hover to see current wind gust speed)